Location: Clairmont
(55.2667°N, 118.8000°W)
Time: 08:57:11
(UTC+00:00)

N. Korean satellite - Pass Details

Date: 01 November 2020
Orbit: 453 x 503 km, 97.2° (Epoch: 03 December)

Event Time Altitude Azimuth Distance (km) Brightness Sun altitude
Rises 12:35:25 0° 26° (NNE) 2,484 10.6 -21.0°
Reaches altitude 10° 12:38:00 10° 47° (NE) 1,602 9.9 -20.7°
Maximum altitude 12:40:21 17° 91° (E) 1,220 9.6 -20.3°
Drops below altitude 10° 12:42:42 10° 134° (SE) 1,594 9.7 -20.0°
Sets 12:45:15 0° 155° (SSE) 2,465 10.4 -19.6°
